Location: Banff
(51.1667°N, 115.5667°W)
Time: 07:19:00
(UTC+00:00)

N. Korean satellite - Pass Details

Date: 26 November 2022
Orbit: 407 x 442 km, 97.3° (Epoch: 04 February)

Event Time Altitude Azimuth Distance (km) Brightness Sun altitude
Rises 00:31:02 0° 185° (S) 2,413 10.5 -7.5°
Reaches altitude 10° 00:33:07 10° 194° (SSW) 1,561 9.7 -7.8°
Maximum altitude 00:36:15 36° 263° (W) 730 8.2 -8.2°
Drops below altitude 10° 00:39:28 10° 332° (NNW) 1,610 9.3 -8.7°
Sets 00:41:40 0° 341° (NNW) 2,501 10.2 -9.0°
